Location: Wiler
(46.4041°N, 7.7840°E)
Time: 09:22:53
(UTC+00:00)

Cosmos 2184 Rocket - Pass Details

Date: 09 April 2020
Orbit: 958 x 1003 km, 82.9° (Epoch: 24 May)

Event Time Altitude Azimuth Distance (km) Brightness Sun altitude
Rises 19:00:08 0° 349° (N) 3,706 7.5 -9.2°
Reaches altitude 10° 19:02:41 10° 348° (NNW) 2,747 6.9 -9.6°
Maximum altitude 19:08:56 73° 265° (W) 1,020 4.3 -10.6°
Drops below altitude 10° 19:15:06 10° 182° (S) 2,699 6.1 -11.6°
Sets 19:17:34 0° 181° (S) 3,636 6.7 -12.0°
